Location: Härggis
(46.9540°N, 8.4897°E)
Time: 21:23:18
(UTC+00:00)

SL-16 R/B - Pass Details

Date: 29 September 2022
Orbit: 985 x 1007 km, 99.6° (Epoch: 05 December)

Event Time Altitude Azimuth Distance (km) Brightness Sun altitude
Exits shadow 02:12:51 19° 325° (NW) 2,182 4.3 -31.3°
Drops below altitude 10° 02:14:36 10° 333° (NNW) 2,771 4.9 -31.1°
Sets 02:17:14 0° 340° (NNW) 3,728 5.7 -30.7°
